Location: Bellflower
(33.8817°N, 118.1170°W)
Time: 14:02:47
(UTC+00:00)

CENTAUR R/B - Pass Details

Date: 23 November 2020
Orbit: 750 x 1438 km, 63.4° (Epoch: 11 January)

Event Time Altitude Azimuth Distance (km) Brightness Sun altitude
Rises 14:00:15 0° 326° (NW) 4,289 5.4 -7.1°
Reaches altitude 10° 14:03:01 10° 324° (NW) 3,386 4.8 -6.6°
Maximum altitude 14:11:25 69° 244° (WSW) 1,506 3.4 -4.9°
Drops below altitude 10° 14:20:12 10° 163° (SSE) 3,526 6.0 -3.2°
Sets 14:23:07 0° 161° (SSE) 4,474 6.6 -2.7°
